Location: Kalberh�ni
(46.4610°N, 7.2453°E)
Time: 02:12:48
(UTC+00:00)

SL-8 R/B - Visible Passes

Search period start: 23 October 2021 00:00
Search period end: 02 November 2021 00:00
Orbit: 656 x 667 km, 48.4° (Epoch: 22 October)

Date Brightness Start Highest point End Pass type
(mag) Time Alt. Az. Time Alt. Az. Time Alt. Az.
23 Oct 3.7 17:17:37 10° WSW 17:22:25 86° SSE 17:26:39 14° ENE visible
23 Oct 4.0 19:00:21 10° W 19:04:36 62° NW 19:04:36 62° NW visible
24 Oct 3.8 17:48:32 10° W 17:53:19 73° N 17:56:02 26° ENE visible
24 Oct 5.2 19:31:17 10° WNW 19:33:59 34° WNW 19:33:59 34° WNW visible
25 Oct 3.7 18:19:29 10° W 18:24:17 69° N 18:25:25 50° ENE visible
25 Oct 6.3 20:02:08 10° WNW 20:03:23 18° WNW 20:03:23 18° WNW visible
26 Oct 3.8 17:07:40 10° W 17:12:28 72° N 17:16:51 12° ENE visible
26 Oct 3.8 18:50:25 10° WNW 18:54:49 73° NW 18:54:49 73° NW visible
27 Oct 3.8 17:38:38 10° W 17:43:25 69° N 17:46:16 24° E visible
27 Oct 5.0 19:21:17 10° WNW 19:24:14 37° W 19:24:14 37° W visible
28 Oct 3.6 18:09:32 10° WNW 18:14:22 82° NNE 18:15:43 47° E visible
28 Oct 6.2 19:52:13 10° WNW 19:53:41 19° W 19:53:41 19° W visible
29 Oct 3.8 16:57:47 10° W 17:02:34 70° N 17:07:15 11° E visible
29 Oct 3.8 18:40:25 10° WNW 18:45:11 68° SSW 18:45:14 68° SSW visible
30 Oct 3.7 17:28:41 10° WNW 17:33:30 84° NNE 17:36:50 20° ESE visible
30 Oct 5.1 19:11:23 10° W 19:14:48 34° WSW 19:14:48 34° WSW visible
31 Oct 3.9 17:59:32 10° WNW 18:04:18 66° SSW 18:06:28 31° SE visible
31 Oct 6.2 19:42:49 10° W 19:44:28 16° WSW 19:44:28 16° WSW visible
01 Nov 3.7 16:47:49 10° WNW 16:52:38 86° NNE 16:57:27 10° ESE visible
01 Nov 4.9 18:30:32 10° W 18:34:55 36° SW 18:36:14 30° S visible
